Location: ??????
(41.3794°N, 22.5014°E)
Time: 15:00:45
(UTC+00:00)

Cosmos 1782 - Visible Passes

Search period start: 12 April 2021 00:00
Search period end: 22 April 2021 00:00
Orbit: 536 x 551 km, 82.5° (Epoch: 11 April)

Date Brightness Start Highest point End Pass type
(mag) Time Alt. Az. Time Alt. Az. Time Alt. Az.
19 Apr 6.1 22:48:00 10° NNW 22:48:00 10° NNW 22:48:04 10° NNW visible
20 Apr 6.1 22:41:37 11° NNW 22:41:37 11° NNW 22:41:46 10° NNW visible
21 Apr 6.0 22:35:13 11° NNW 22:35:13 11° NNW 22:35:28 10° NNW visible
